Terminal Aerodrome Forecast
Issued by NWS

Home | Current Version | Previous Version | Text Only | Print | Product List | Glossary On
Versions: 1 2 3 4 5 6 7 8 9 10 11 12 13 14 15 16 17 18 19 20 21 22 23 24 25 26 27 28 29 30 31 32 33 34
000
FTUS44 KLZK 182018 AAA
TAFADF
TAF AMD
KADF 182018Z 1820/1918 09004KT 6SM BR OVC009
      TEMPO 1820/1824 3SM -RA BR
     FM190000 08003KT 3SM -RA BR BKN001 OVC005
     FM190800 07002KT 4SM -SHRA BR OVC003
      TEMPO 1908/1912 4SM -TSRA BKN003CB
     FM191600 26003KT 4SM BR OVC003=

USA.gov is the U.S. government's official web portal to all federal, state and local government web resources and services.